Location: Brno
(49.2000°N, 16.6330°E)
Time: 02:31:46
(UTC+01:00)

RESURS DK-1 - Visible Passes

Search period start: 20 December 2014 00:00
Search period end: 30 December 2014 00:00
Orbit: 558 x 569 km, 69.9° (Epoch: 19 December)

Date Brightness Start Highest point End Pass type
(mag) Time Alt. Az. Time Alt. Az. Time Alt. Az.
26 Dec 4.9 18:46:59 10° NNW 18:47:26 13° NNW 18:47:26 13° NNW visible
27 Dec 4.5 17:10:27 10° NNE 17:11:26 11° NNE 17:11:31 11° NE visible
27 Dec 4.6 18:46:31 10° NNW 18:47:31 16° NNW 18:47:31 16° NNW visible
28 Dec 4.3 17:09:21 10° N 17:11:17 13° NE 17:11:42 13° NE visible
28 Dec 4.2 18:46:06 10° NNW 18:47:43 23° NNW 18:47:43 23° NNW visible
29 Dec 4.0 17:08:34 10° N 17:11:07 16° NE 17:12:05 15° NE visible
29 Dec 3.6 18:45:42 10° NNW 18:48:07 34° NNW 18:48:07 34° NNW visible
